Left ArrowRight Arrow

39.51506, -84.39828

Hourly Observations for June 25, 2024

Temp ( °F °C ) Dew Point ( °F °C ) Humidity (%) Winds ( mph kmh ) Pressure ( in mb ) Visibility ( mi km ) Precip ( " mm )
12:15 am 00:15 Clear 65 18.1 63 17.1 94 94 Calm 29.97 1015 10 16 0.00 0.00
12:35 am 00:35 Clear 64 17.9 N/A N/A Calm 29.97 1015 10 16 0.00 0.00
12:55 am 00:55 Clear 64 17.8 N/A N/A Calm 29.98 1015 10 16 0.00 0.00
1:15 am 01:15 Clear 63 17.4 N/A N/A Calm 29.98 1015 10 16 0.00 0.00
1:35 am 01:35 Clear 62 16.9 N/A N/A Calm 29.98 1015 10 16 0.00 0.00
1:55 am 01:55 Clear 63 17.2 N/A N/A Calm 29.99 1016 10 16 0.00 0.00
2:15 am 02:15 Clear 63 17.2 N/A N/A Calm 29.99 1016 10 16 0.00 0.00
2:35 am 02:35 Clear 63 17 N/A N/A Calm 29.98 1015 10 16 0.00 0.00
2:55 am 02:55 Clear 63 17 N/A N/A Calm 29.97 1015 10 16 0.00 0.00
3:15 am 03:15 Clear 62 16.9 N/A N/A Calm 29.95 1014 10 16 0.00 0.00
3:35 am 03:35 Clear 61 15.9 N/A N/A Calm 29.96 1015 10 16 0.00 0.00
3:55 am 03:55 Clear 62 16.5 N/A N/A Calm 29.97 1015 10 16 0.00 0.00
4:15 am 04:15 Clear 62 16.7 N/A N/A Calm 29.95 1014 10 16 0.00 0.00
4:35 am 04:35 Clear 62 16.4 N/A N/A Calm 29.94 1014 7 11 0.00 0.00
4:55 am 04:55 Hazy 61 16 N/A N/A Calm 29.93 1014 7 11 0.00 0.00
5:15 am 05:15 Clear 62 16.5 N/A N/A WSW 3 6 29.93 1014 10 16 0.00 0.00
5:35 am 05:35 Clear 62 16.5 N/A N/A SSW 3 6 29.93 1014 10 16 0.00 0.00
5:55 am 05:55 Clear 62 16.9 N/A N/A WSW 3 6 29.95 1014 10 16 0.00 0.00
6:15 am 06:15 Hazy 62 16.8 N/A N/A Calm 29.96 1015 7 11 0.00 0.00
6:35 am 06:35 Sunny with Mist and Fog 61 16.3 N/A N/A Calm 29.96 1015 3 5 0.00 0.00
6:55 am 06:55 Sunny 63 17.1 N/A N/A Calm 29.96 1015 10 16 0.00 0.00
7:15 am 07:15 Sunny 65 18.1 N/A N/A S 5 7 29.94 1014 10 16 0.00 0.00
7:35 am 07:35 Sunny 69 20.3 68 19.8 97 97 SW 5 7 29.93 1014 10 16 0.00 0.00
7:55 am 07:55 Sunny 70 21.1 66 18.8 87 87 SW 6 9 29.93 1014 10 16 0.00 0.00
8:15 am 08:15 Sunny 73 22.5 65 18.2 77 77 SSW 7 11 29.94 1014 10 16 0.00 0.00
8:35 am 08:35 Partly Cloudy 74 23.5 62 16.5 65 65 SSW 9 15 29.94 1014 10 16 0.00 0.00
8:55 am 08:55 Mostly Cloudy 76 24.6 59 15.2 56 56 S 9 15 29.93 1014 10 16 0.00 0.00
9:15 am 09:15 Mostly Cloudy 78 25.3 59 15.2 54 54 S 9 15 29.91 1013 10 16 0.00 0.00
9:35 am 09:35 Partly Cloudy 80 26.5 59 14.8 49 49 S 15 24 29.88 1012 10 16 0.00 0.00
9:55 am 09:55 Sunny 82 27.6 58 14.7 45 45 S 14 22 29.88 1012 10 16 0.00 0.00
10:15 am 10:15 Partly Cloudy 83 28.5 58 14.2 42 42 S 17 28 29.90 1012 10 16 0.00 0.00
10:35 am 10:35 Mostly Cloudy 84 28.7 57 14 41 41 S 21 33 29.88 1012 10 16 0.00 0.00
10:55 am 10:55 Partly Cloudy 84 28.9 57 14.1 40 40 SSW 14 22 29.89 1012 10 16 0.00 0.00
11:15 am 11:15 Cloudy 83 28.4 57 14 41 41 S 14 22 29.91 1013 10 16 0.00 0.00
11:35 am 11:35 Cloudy 83 28.3 58 14.2 42 42 SSW 12 19 29.92 1013 10 16 0.00 0.00
11:55 am 11:55 Cloudy 83 28.5 58 14.2 42 42 SSW 12 19 29.90 1012 10 16 0.00 0.00
12:15 pm 12:15 Partly Cloudy 85 29.4 58 14.5 40 40 S 17 28 29.89 1012 10 16 0.00 0.00
12:35 pm 12:35 Sunny 86 29.9 59 14.9 40 40 SSW 15 24 29.90 1013 10 16 0.00 0.00
12:55 pm 12:55 Sunny 85 29.7 60 15.5 42 42 SSW 16 26 29.90 1013 10 16 0.00 0.00
1:15 pm 13:15 Partly Cloudy 84 29 62 16.4 47 47 SW 12 19 29.92 1013 10 16 0.00 0.00
1:35 pm 13:35 Cloudy with Light Rain 83 28.2 62 16.6 49 49 SW 7 11 29.94 1014 10 16 0.00 0.00
1:55 pm 13:55 Cloudy with Haze 80 26.6 63 17 56 56 N 16 26 29.98 1015 5 8 0.00 0.00
2:15 pm 14:15 Cloudy with Light Rain 74 23.2 68 19.9 82 82 NE 12 19 29.99 1015 10 16 0.08 2.03
2:35 pm 14:35 Cloudy with Nearby Thunderstorms 72 22 70 21 94 94 ENE 8 13 29.97 1015 7 11 0.11 2.79
2:55 pm 14:55 Partly Cloudy 73 22.5 N/A N/A E 7 11 29.94 1014 10 16 0.11 2.79
3:15 pm 15:15 Sunny 74 23.4 N/A N/A SSE 6 9 29.92 1013 10 16 0.00 0.00
3:35 pm 15:35 Sunny 77 24.8 71 21.6 82 82 ESE 12 19 29.90 1013 10 16 0.00 0.00
3:55 pm 15:55 Sunny 78 25.8 68 19.8 70 70 SSE 15 24 29.87 1012 10 16 0.00 0.00
4:15 pm 16:15 Sunny 81 27 67 19.6 64 64 SSE 18 30 29.85 1011 10 16 0.00 0.00
4:35 pm 16:35 Sunny 83 28.2 67 19.5 59 59 S 20 31 29.83 1010 10 16 0.00 0.00
4:55 pm 16:55 Sunny 84 29 68 20.2 59 59 SSE 13 20 29.82 1010 10 16 0.00 0.00
5:15 pm 17:15 Sunny 83 28.6 67 19.3 57 57 S 6 9 29.85 1011 10 16 0.00 0.00
5:35 pm 17:35 Sunny 85 29.7 68 19.9 56 56 S 8 13 29.83 1010 10 16 0.00 0.00
5:55 pm 17:55 Partly Cloudy 86 30 67 19.4 53 53 S 9 15 29.84 1011 10 16 0.00 0.00
6:15 pm 18:15 Partly Cloudy 86 29.9 68 19.9 55 55 SSW 7 11 29.83 1010 10 16 0.00 0.00
6:35 pm 18:35 Sunny 86 29.8 68 20.1 56 56 SSW 12 19 29.81 1010 10 16 0.00 0.00
6:55 pm 18:55 Sunny 85 29.5 67 19.2 54 54 SSW 14 22 29.80 1009 10 16 0.00 0.00
7:15 pm 19:15 Sunny 84 29.1 67 19.4 56 56 S 13 20 29.80 1009 10 16 0.00 0.00
7:35 pm 19:35 Sunny 84 28.8 67 19.3 57 57 S 12 19 29.79 1009 10 16 0.00 0.00
7:55 pm 19:55 Sunny 83 28.5 67 19.4 58 58 SSW 7 11 29.80 1009 10 16 0.00 0.00
8:15 pm 20:15 Sunny 81 27.4 68 19.9 64 64 SW 5 7 29.81 1009 10 16 0.00 0.00
8:35 pm 20:35 Sunny 80 26.6 69 20.3 68 68 SW 7 11 29.82 1010 10 16 0.00 0.00
8:55 pm 20:55 Sunny 79 26.1 68 20.1 70 70 SSW 3 6 29.82 1010 10 16 0.00 0.00
9:15 pm 21:15 Clear 79 26 68 19.8 69 69 SSW 7 11 29.82 1010 10 16 0.00 0.00
9:35 pm 21:35 Clear 76 24.2 69 20.3 79 79 W 5 7 29.85 1011 10 16 0.00 0.00
9:55 pm 21:55 Clear 75 23.8 69 20.8 83 83 WSW 6 9 29.86 1011 10 16 0.00 0.00
10:15 pm 22:15 Clear 75 23.9 68 19.9 78 78 Calm 29.86 1011 10 16 0.00 0.00
10:35 pm 22:35 Clear 73 22.8 71 21.8 94 94 Calm 29.86 1011 10 16 0.00 0.00
10:55 pm 22:55 Clear 72 22.2 N/A N/A Calm 29.87 1012 10 16 0.00 0.00
11:15 pm 23:15 Clear 71 21.5 N/A N/A SSE 5 7 29.88 1012 10 16 0.00 0.00
11:35 pm 23:35 Clear 73 22.6 70 21 91 91 SW 7 11 29.88 1012 10 16 0.00 0.00
11:55 pm 23:55 Clear 73 22.6 68 20.1 86 86 SW 5 7 29.89 1012 10 16 0.00 0.00

Powered by Vaisala Xweather